When you browse on this site, cookies collect data to enhance your experience and personalize the content and advertising you see.
Visit our Privacy Policy to learn more. By continuing to use the site, you agree to this use of cookies and data.
  • In United Kingdom
  • List of Countries
  • For 7 days
  • Water Temperature
  • Weather Map
  • Weather Widgets
  • user-avatar
    Login

    Hourly Weather Uida

    Today, 23 February, Sunday

    Time Temperature Precipitation Wind Pressure Humidity
    00:00 +29°C° 0 mm 5 mps 756 mmHg 86%
    01:00 +29°C° 0 mm 5 mps 756 mmHg 88%
    02:00 +29°C° 0 mm 4 mps 755 mmHg 89%
    03:00 +28°C° 0 mm 4 mps 755 mmHg 91%
    04:00 +28°C° 0 mm 4 mps 755 mmHg 91%
    05:00 +28°C° 0 mm 4 mps 755 mmHg 92%
    06:00 +28°C° 0 mm 4 mps 756 mmHg 92%
    07:00 +30°C° 0 mm 3 mps 756 mmHg 84%
    08:00 +31°C° 0 mm 3 mps 757 mmHg 76%
    09:00 +34°C° 0 mm 3 mps 757 mmHg 67%
    10:00 +35°C° 0 mm 3 mps 757 mmHg 60%
    11:00 +37°C° 0 mm 4 mps 756 mmHg 53%
    12:00 +40°C° 0 mm 4 mps 756 mmHg 46%
    13:00 +39°C° 0 mm 5 mps 755 mmHg 49%
    14:00 +39°C° 0 mm 5 mps 754 mmHg 51%
    15:00 +38°C° 0 mm 6 mps 753 mmHg 53%
    16:00 +35°C° 0 mm 6 mps 753 mmHg 60%
    17:00 +34°C° 0 mm 6 mps 754 mmHg 67%
    18:00 +32°C° 0 mm 6 mps 754 mmHg 75%
    19:00 +30°C° 0 mm 5 mps 755 mmHg 79%
    20:00 +30°C° 0 mm 5 mps 755 mmHg 82%
    21:00 +29°C° 0 mm 4 mps 756 mmHg 86%
    22:00 +29°C° 0 mm 4 mps 756 mmHg 87%
    23:00 +29°C° 0 mm 4 mps 756 mmHg 88%

    Tomorrow, 24 February, Monday

    Time Temperature Precipitation Wind Pressure Humidity
    00:00 +28°C° 0 mm 4 mps 756 mmHg 90%
    01:00 +28°C° 0 mm 5 mps 755 mmHg 91%
    02:00 +28°C° 0 mm 5 mps 755 mmHg 92%
    03:00 +28°C° 0 mm 5 mps 755 mmHg 93%
    04:00 +28°C° 0 mm 4 mps 755 mmHg 92%
    05:00 +28°C° 0 mm 4 mps 756 mmHg 91%
    06:00 +28°C° 0 mm 4 mps 756 mmHg 90%
    07:00 +29°C° 0 mm 3 mps 756 mmHg 83%
    08:00 +30°C° 0 mm 3 mps 757 mmHg 76%
    09:00 +32°C° 0 mm 2 mps 757 mmHg 69%
    10:00 +33°C° 0 mm 3 mps 757 mmHg 64%
    11:00 +34°C° 0 mm 3 mps 756 mmHg 60%
    12:00 +35°C° 0 mm 4 mps 756 mmHg 56%
    13:00 +36°C° 0 mm 4 mps 755 mmHg 54%
    14:00 +36°C° 0 mm 5 mps 754 mmHg 52%
    15:00 +38°C° 0 mm 6 mps 754 mmHg 50%
    16:00 +35°C° 0 mm 6 mps 754 mmHg 57%
    17:00 +34°C° 0 mm 6 mps 754 mmHg 63%
    18:00 +32°C° 0 mm 6 mps 754 mmHg 70%
    19:00 +30°C° 0 mm 6 mps 755 mmHg 73%
    20:00 +30°C° 0 mm 6 mps 755 mmHg 76%
    21:00 +29°C° 0 mm 6 mps 756 mmHg 79%
    22:00 +29°C° 0 mm 5 mps 756 mmHg 82%
    23:00 +29°C° 0 mm 5 mps 755 mmHg 84%

    Day after tomorrow, 25 February, Tuesday

    Time Temperature Precipitation Wind Pressure Humidity
    00:00 +28°C° 0 mm 5 mps 755 mmHg 86%
    01:00 +28°C° 0 mm 5 mps 755 mmHg 88%
    02:00 +28°C° 0 mm 4 mps 755 mmHg 89%
    03:00 +27°C° 0 mm 4 mps 755 mmHg 91%
    04:00 +27°C° 0 mm 4 mps 755 mmHg 92%
    05:00 +27°C° 0 mm 3 mps 755 mmHg 92%
    06:00 +27°C° 0 mm 3 mps 756 mmHg 92%
    07:00 +29°C° 0.3 mm 3 mps 756 mmHg 82%
    08:00 +31°C° 0.3 mm 3 mps 757 mmHg 72%
    09:00 +34°C° 0.3 mm 3 mps 757 mmHg 61%
    10:00 +36°C° 0.1 mm 3 mps 757 mmHg 54%
    11:00 +37°C° 0.1 mm 4 mps 756 mmHg 46%
    12:00 +40°C° 0.1 mm 4 mps 756 mmHg 39%
    13:00 +39°C° 0 mm 5 mps 755 mmHg 43%
    14:00 +38°C° 0 mm 6 mps 754 mmHg 48%
    15:00 +36°C° 0 mm 6 mps 753 mmHg 52%
    16:00 +35°C° 0 mm 6 mps 753 mmHg 58%
    17:00 +33°C° 0 mm 6 mps 754 mmHg 65%
    18:00 +32°C° 0 mm 5 mps 754 mmHg 71%
    19:00 +30°C° 0 mm 5 mps 754 mmHg 74%
    20:00 +30°C° 0 mm 5 mps 755 mmHg 77%
    21:00 +29°C° 0 mm 5 mps 755 mmHg 80%
    22:00 +29°C° 0 mm 5 mps 755 mmHg 81%
    23:00 +29°C° 0 mm 5 mps 755 mmHg 83%

    26 February, Wednesday

    Time Temperature Precipitation Wind Pressure Humidity
    00:00 +28°C° 0 mm 5 mps 755 mmHg 84%
    01:00 +28°C° 0 mm 4 mps 755 mmHg 86%
    02:00 +28°C° 0 mm 4 mps 754 mmHg 88%
    03:00 +27°C° 0 mm 3 mps 754 mmHg 90%
    04:00 +27°C° 0 mm 3 mps 754 mmHg 90%
    05:00 +27°C° 0 mm 3 mps 755 mmHg 90%
    06:00 +27°C° 0 mm 2 mps 755 mmHg 91%
    07:00 +29°C° 0 mm 3 mps 756 mmHg 80%
    08:00 +31°C° 0 mm 3 mps 756 mmHg 70%
    09:00 +34°C° 0 mm 3 mps 757 mmHg 59%
    10:00 +35°C° 0 mm 4 mps 756 mmHg 54%
    11:00 +37°C° 0 mm 4 mps 756 mmHg 48%
    12:00 +39°C° 0 mm 5 mps 755 mmHg 43%
    13:00 +37°C° 0 mm 5 mps 755 mmHg 47%
    14:00 +36°C° 0 mm 6 mps 754 mmHg 50%
    15:00 +35°C° 0 mm 6 mps 753 mmHg 54%
    16:00 +34°C° 0 mm 6 mps 753 mmHg 61%
    17:00 +32°C° 0 mm 6 mps 753 mmHg 68%
    18:00 +30°C° 0 mm 5 mps 754 mmHg 75%
    19:00 +30°C° 0 mm 5 mps 754 mmHg 77%
    20:00 +29°C° 0 mm 5 mps 755 mmHg 79%
    21:00 +29°C° 0 mm 5 mps 756 mmHg 81%
    22:00 +29°C° 0 mm 5 mps 755 mmHg 83%
    23:00 +28°C° 0 mm 4 mps 755 mmHg 85%

    27 February, Thursday

    Time Temperature Precipitation Wind Pressure Humidity
    00:00 +28°C° 0 mm 4 mps 755 mmHg 86%
    01:00 +28°C° 0 mm 4 mps 755 mmHg 87%
    02:00 +28°C° 0 mm 4 mps 755 mmHg 87%
    03:00 +28°C° 0 mm 4 mps 754 mmHg 88%
    04:00 +28°C° 0 mm 4 mps 755 mmHg 89%
    05:00 +27°C° 0 mm 4 mps 755 mmHg 90%
    06:00 +27°C° 0 mm 3 mps 755 mmHg 91%
    07:00 +29°C° 0 mm 3 mps 756 mmHg 83%
    08:00 +30°C° 0 mm 3 mps 756 mmHg 74%
    09:00 +33°C° 0 mm 3 mps 757 mmHg 66%
    10:00 +34°C° 0 mm 3 mps 757 mmHg 61%
    11:00 +35°C° 0 mm 3 mps 756 mmHg 56%
    12:00 +36°C° 0 mm 4 mps 756 mmHg 51%
    13:00 +36°C° 0 mm 4 mps 755 mmHg 51%
    14:00 +36°C° 0 mm 4 mps 754 mmHg 51%
    15:00 +36°C° 0 mm 5 mps 754 mmHg 52%
    16:00 +34°C° 0 mm 5 mps 754 mmHg 59%
    17:00 +33°C° 0 mm 5 mps 754 mmHg 66%
    18:00 +30°C° 0 mm 5 mps 754 mmHg 73%
    19:00 +30°C° 0 mm 5 mps 755 mmHg 76%
    20:00 +29°C° 0 mm 5 mps 756 mmHg 79%
    21:00 +29°C° 0 mm 5 mps 756 mmHg 82%
    22:00 +29°C° 0 mm 5 mps 756 mmHg 83%
    23:00 +28°C° 0 mm 4 mps 756 mmHg 84%

    28 February, Friday

    Time Temperature Precipitation Wind Pressure Humidity
    00:00 +28°C° 0 mm 4 mps 756 mmHg 85%
    01:00 +28°C° 0 mm 4 mps 756 mmHg 86%
    02:00 +28°C° 0 mm 4 mps 755 mmHg 87%
    03:00 +28°C° 0 mm 4 mps 755 mmHg 88%
    04:00 +27°C° 0 mm 4 mps 755 mmHg 89%
    05:00 +27°C° 0 mm 3 mps 755 mmHg 91%
    06:00 +27°C° 0 mm 3 mps 755 mmHg 92%
    07:00 +29°C° 0 mm 3 mps 756 mmHg 83%
    08:00 +30°C° 0 mm 3 mps 756 mmHg 73%
    09:00 +33°C° 0 mm 4 mps 757 mmHg 64%
    10:00 +35°C° 0 mm 4 mps 757 mmHg 58%
    11:00 +36°C° 0 mm 4 mps 756 mmHg 52%
    12:00 +39°C° 0 mm 5 mps 756 mmHg 46%
    13:00 +37°C° 0 mm 5 mps 755 mmHg 48%
    14:00 +36°C° 0 mm 5 mps 754 mmHg 51%
    15:00 +36°C° 0 mm 6 mps 754 mmHg 53%
    16:00 +34°C° 0 mm 5 mps 754 mmHg 60%
    17:00 +33°C° 0 mm 5 mps 754 mmHg 66%
    18:00 +30°C° 0 mm 5 mps 754 mmHg 73%
    19:00 +30°C° 0 mm 5 mps 755 mmHg 76%
    20:00 +29°C° 0 mm 4 mps 755 mmHg 80%
    21:00 +29°C° 0 mm 4 mps 756 mmHg 83%
    22:00 +29°C° 0 mm 4 mps 755 mmHg 84%
    23:00 +29°C° 0 mm 4 mps 755 mmHg 85%
    Show more